| time (UTC) | temp F | wind direction | speed knots | gust knots | rain 1hr in | rain 24hr in | rain mn in | humidity % | barometer mb |
| 20260508012506 | 62 | 5 | 0.0 | 3.5 | 0.00 | 0.00 | 0.00 | 57 | 1017.3 |
| 20260508012004 | 62 | 25 | 1.7 | 3.5 | 0.00 | 0.00 | 0.00 | 58 | 1017.5 |
| 20260508011509 | 62 | 322 | 2.6 | 3.5 | 0.00 | 0.00 | 0.00 | 56 | 1017.5 |
| 20260508011008 | 63 | 10 | 0.9 | 2.6 | 0.00 | 0.00 | 0.00 | 58 | 1017.5 |
| 20260508010504 | 62 | 16 | 0.0 | 2.6 | 0.00 | 0.00 | 0.00 | 55 | 1017.5 |
| 20260508010028 | 62 | 12 | 0.0 | 2.6 | 0.00 | 0.00 | 0.00 | 55 | 1017.6 |
| 20260508005507 | 62 | 344 | 0.9 | 2.6 | 0.00 | 0.00 | 0.00 | 55 | 1017.7 |
| 20260508005009 | 63 | 273 | 0.9 | 2.6 | 0.00 | 0.00 | 0.00 | 54 | 1017.7 |
| 20260508004521 | 63 | 184 | 0.9 | 2.6 | 0.00 | 0.00 | 0.00 | 54 | 1017.7 |
| 20260508004013 | 62 | 155 | 0.9 | 2.6 | 0.00 | 0.00 | 0.00 | 56 | 1017.7 |
| 20260508003511 | 62 | 76 | 0.9 | 3.5 | 0.00 | 0.00 | 0.00 | 54 | 1017.7 |
| 20260508003024 | 62 | 17 | 0.0 | 3.5 | 0.00 | 0.00 | 0.00 | 56 | 1017.8 |
| 20260508002507 | 63 | 289 | 1.7 | 3.5 | 0.00 | 0.00 | 0.00 | 54 | 1017.8 |
| 20260508002013 | 63 | 284 | 0.9 | 2.6 | 0.00 | 0.00 | 0.00 | 56 | 1017.9 |
| 20260508001514 | 62 | 289 | 0.0 | 2.6 | 0.00 | 0.00 | 0.00 | 56 | 1017.9 |
| 20260508001005 | 63 | 260 | 0.9 | 5.2 | 0.00 | 0.00 | 0.00 | 57 | 1018.0 |
| 20260508000507 | 62 | 157 | 0.9 | 5.2 | 0.00 | 0.00 | 0.00 | 57 | 1018.0 |
| 20260508000013 | 62 | 335 | 2.6 | 5.2 | 0.00 | 0.00 | 0.00 | 56 | 1018.0 |
| 20260507235507 | 63 | 32 | 0.9 | 5.2 | 0.00 | 0.00 | 0.00 | 55 | 1017.9 |
| 20260507235008 | 63 | 219 | 0.0 | 5.2 | 0.00 | 0.00 | 0.00 | 55 | 1017.9 |
| 20260507234528 | 62 | 155 | 2.6 | 5.2 | 0.00 | 0.00 | 0.00 | 54 | 1018.0 |
| 20260507234008 | 62 | 9 | 0.9 | 5.2 | 0.00 | 0.00 | 0.00 | 55 | 1017.9 |
| 20260507233508 | 62 | 300 | 1.7 | 5.2 | 0.00 | 0.00 | 0.00 | 55 | 1018.0 |
| 20260507233027 | 62 | 300 | 2.6 | 5.2 | 0.00 | 0.00 | 0.00 | 54 | 1018.0 |
| 20260507232508 | 62 | 180 | 1.7 | 5.2 | 0.00 | 0.00 | 0.00 | 55 | 1018.1 |
| 20260507232008 | 62 | 352 | 2.6 | 5.2 | 0.00 | 0.00 | 0.00 | 55 | 1018.1 |
| 20260507231526 | 62 | 313 | 0.0 | 4.3 | 0.00 | 0.00 | 0.00 | 58 | 1018.1 |
| 20260507231009 | 61 | 309 | 2.6 | 7.0 | 0.00 | 0.00 | 0.00 | 57 | 1018.3 |
| 20260507230508 | 61 | 261 | 1.7 | 7.0 | 0.00 | 0.00 | 0.00 | 56 | 1018.4 |
| 20260507230016 | 62 | 294 | 2.6 | 3.5 | 0.00 | 0.00 | 0.00 | 57 | 1018.4 |
| 20260507225507 | 62 | 146 | 1.7 | 5.2 | 0.00 | 0.00 | 0.00 | 57 | 1018.4 |
| 20260507225005 | 61 | 246 | 2.6 | 6.1 | 0.00 | 0.00 | 0.00 | 55 | 1018.6 |
| 20260507224501 | 62 | 306 | 1.7 | 6.1 | 0.00 | 0.00 | 0.00 | 56 | 1018.6 |
| 20260507224001 | 62 | 267 | 1.7 | 3.5 | 0.00 | 0.00 | 0.00 | 54 | 1018.6 |
| 20260507223502 | 63 | 13 | 0.9 | 5.2 | 0.00 | 0.00 | 0.00 | 56 | 1018.8 |
| 20260507223008 | 62 | 273 | 2.6 | 6.1 | 0.00 | 0.00 | 0.00 | 56 | 1018.8 |
| 20260507222503 | 62 | 131 | 1.7 | 6.1 | 0.00 | 0.00 | 0.00 | 56 | 1018.9 |
| 20260507222004 | 63 | 275 | 1.7 | 5.2 | 0.00 | 0.00 | 0.00 | 56 | 1018.9 |
| 20260507221506 | 63 | 155 | 0.9 | 7.8 | 0.00 | 0.00 | 0.00 | 56 | 1018.9 |
| 20260507221006 | 62 | 281 | 2.6 | 7.8 | 0.00 | 0.00 | 0.00 | 57 | 1019.0 |
| 20260507220504 | 61 | 252 | 1.7 | 6.1 | 0.00 | 0.00 | 0.00 | 57 | 1019.0 |
| 20260507220010 | 62 | 271 | 3.5 | 7.0 | 0.00 | 0.00 | 0.00 | 55 | 1019.0 |
| 20260507215504 | 61 | 296 | 3.5 | 7.0 | 0.00 | 0.00 | 0.00 | 57 | 1019.1 |
| 20260507215008 | 62 | 284 | 2.6 | 7.0 | 0.00 | 0.00 | 0.00 | 54 | 1019.1 |
| 20260507214515 | 63 | 306 | 2.6 | 6.1 | 0.00 | 0.00 | 0.00 | 55 | 1019.1 |
| 20260507214007 | 63 | 292 | 2.6 | 5.2 | 0.00 | 0.00 | 0.00 | 53 | 1019.2 |
| 20260507213510 | 63 | 224 | 1.7 | 5.2 | 0.00 | 0.00 | 0.00 | 57 | 1019.2 |
| 20260507213001 | 62 | 149 | 1.7 | 7.0 | 0.00 | 0.00 | 0.00 | 55 | 1019.2 |
| 20260507212501 | 63 | 119 | 0.9 | 7.0 | 0.00 | 0.00 | 0.00 | 56 | 1019.3 |
| 20260507212002 | 63 | 153 | 0.9 | 6.1 | 0.00 | 0.00 | 0.00 | 56 | 1019.4 |
| 20260507211504 | 62 | 96 | 2.6 | 6.1 | 0.00 | 0.00 | 0.00 | 53 | 1019.4 |
| 20260507211004 | 65 | 272 | 2.6 | 6.1 | 0.00 | 0.00 | 0.00 | 52 | 1019.6 |
| 20260507210504 | 64 | 336 | 0.9 | 5.2 | 0.00 | 0.00 | 0.00 | 56 | 1019.5 |
| 20260507210008 | 62 | 200 | 1.7 | 5.2 | 0.00 | 0.00 | 0.00 | 57 | 1019.5 |
| 20260507205505 | 62 | 167 | 1.7 | 5.2 | 0.00 | 0.00 | 0.00 | 61 | 1019.6 |
| 20260507205005 | 62 | 282 | 2.6 | 5.2 | 0.00 | 0.00 | 0.00 | 54 | 1019.7 |
| 20260507204511 | 63 | 218 | 0.9 | 5.2 | 0.00 | 0.00 | 0.00 | 58 | 1019.7 |
| 20260507204007 | 63 | 166 | 1.7 | 5.2 | 0.00 | 0.00 | 0.00 | 58 | 1019.8 |
| 20260507203509 | 62 | 205 | 2.6 | 6.1 | 0.00 | 0.00 | 0.00 | 56 | 1019.8 |
| 20260507203016 | 61 | 5 | 1.7 | 6.1 | 0.00 | 0.00 | 0.00 | 57 | 1019.9 |
| 20260507202506 | 60 | 330 | 1.7 | 6.1 | 0.00 | 0.00 | 0.00 | 59 | 1020.0 |
| 20260507202010 | 60 | 321 | 2.6 | 6.1 | 0.00 | 0.00 | 0.00 | 58 | 1020.1 |
| 20260507201505 | 61 | 308 | 2.6 | 6.1 | 0.00 | 0.00 | 0.00 | 57 | 1020.1 |
| 20260507201003 | 61 | 310 | 1.7 | 3.5 | 0.00 | 0.00 | 0.00 | 58 | 1020.1 |
| 20260507200503 | 61 | 215 | 0.9 | 2.6 | 0.00 | 0.00 | 0.00 | 61 | 1020.1 |
| 20260507200004 | 59 | 224 | 0.9 | 3.5 | 0.00 | 0.00 | 0.00 | 63 | 1020.2 |
| 20260507195504 | 58 | 301 | 0.9 | 3.5 | 0.00 | 0.00 | 0.00 | 61 | 1020.2 |
| 20260507195006 | 59 | 219 | 0.9 | 4.3 | 0.00 | 0.00 | 0.00 | 62 | 1020.3 |
| 20260507194527 | 58 | 220 | 0.9 | 4.3 | 0.00 | 0.00 | 0.00 | 62 | 1020.2 |
| 20260507194004 | 58 | 179 | 1.7 | 3.5 | 0.00 | 0.00 | 0.00 | 63 | 1020.2 |
| 20260507193508 | 59 | 202 | 0.9 | 4.3 | 0.00 | 0.00 | 0.00 | 61 | 1020.3 |
| 20260507193015 | 58 | 178 | 0.9 | 4.3 | 0.00 | 0.00 | 0.00 | 65 | 1020.2 |
| 20260507192507 | 58 | 143 | 0.9 | 4.3 | 0.00 | 0.00 | 0.00 | 63 | 1020.3 |
| 20260507192006 | 58 | 205 | 2.6 | 4.3 | 0.00 | 0.00 | 0.00 | 61 | 1020.4 |
| 20260507191519 | 58 | 190 | 0.9 | 3.5 | 0.00 | 0.00 | 0.00 | 65 | 1020.4 |
| 20260507191007 | 58 | 202 | 1.7 | 3.5 | 0.00 | 0.00 | 0.00 | 62 | 1020.4 |
| 20260507190511 | 59 | 235 | 0.9 | 3.5 | 0.00 | 0.00 | 0.00 | 63 | 1020.5 |
| 20260507190010 | 58 | 256 | 0.9 | 3.5 | 0.00 | 0.00 | 0.00 | 62 | 1020.5 |
| 20260507185503 | 58 | 219 | 1.7 | 3.5 | 0.00 | 0.00 | 0.00 | 62 | 1020.4 |
| 20260507185003 | 57 | 134 | 0.9 | 3.5 | 0.00 | 0.00 | 0.00 | 63 | 1020.4 |
| 20260507184508 | 58 | 219 | 1.7 | 3.5 | 0.00 | 0.00 | 0.00 | 63 | 1020.5 |
| 20260507184004 | 58 | 234 | 0.9 | 3.5 | 0.00 | 0.00 | 0.00 | 65 | 1020.5 |
| 20260507183504 | 58 | 316 | 0.9 | 4.3 | 0.00 | 0.00 | 0.00 | 63 | 1020.5 |
| 20260507183015 | 57 | 132 | 2.6 | 5.2 | 0.00 | 0.00 | 0.00 | 64 | 1020.5 |
| 20260507182504 | 58 | 242 | 0.9 | 6.1 | 0.00 | 0.00 | 0.00 | 64 | 1020.5 |
| 20260507182009 | 58 | 169 | 1.7 | 6.1 | 0.00 | 0.00 | 0.00 | 62 | 1020.6 |
| 20260507181520 | 59 | 184 | 1.7 | 6.1 | 0.00 | 0.00 | 0.00 | 64 | 1020.6 |
| 20260507181010 | 57 | 179 | 0.9 | 5.2 | 0.00 | 0.00 | 0.00 | 63 | 1020.6 |
| 20260507180507 | 59 | 44 | 0.0 | 4.3 | 0.00 | 0.00 | 0.00 | 64 | 1020.6 |
| 20260507180022 | 57 | 298 | 0.9 | 4.3 | 0.00 | 0.00 | 0.00 | 67 | 1020.7 |
| 20260507175507 | 58 | 306 | 1.7 | 4.3 | 0.00 | 0.00 | 0.00 | 67 | 1020.7 |
| 20260507175010 | 56 | 178 | 2.6 | 6.1 | 0.00 | 0.00 | 0.00 | 69 | 1020.7 |
| 20260507174511 | 55 | 294 | 1.7 | 6.1 | 0.00 | 0.00 | 0.00 | 71 | 1020.7 |
| 20260507174004 | 55 | 162 | 2.6 | 6.1 | 0.00 | 0.00 | 0.00 | 70 | 1020.8 |
| 20260507173510 | 56 | 155 | 3.5 | 6.1 | 0.00 | 0.00 | 0.00 | 68 | 1020.9 |
| 20260507173031 | 57 | 172 | 0.9 | 4.3 | 0.00 | 0.00 | 0.00 | 69 | 1020.9 |
| 20260507172505 | 56 | 173 | 1.7 | 4.3 | 0.00 | 0.00 | 0.00 | 69 | 1020.9 |
| 20260507172009 | 57 | 141 | 0.9 | 2.6 | 0.00 | 0.00 | 0.00 | 69 | 1020.9 |
| 20260507171516 | 57 | 173 | 0.9 | 4.3 | 0.00 | 0.00 | 0.00 | 68 | 1020.9 |
| 20260507171008 | 56 | 228 | 0.9 | 4.3 | 0.00 | 0.00 | 0.00 | 72 | 1020.9 |
| 20260507170509 | 56 | 186 | 0.9 | 4.3 | 0.00 | 0.00 | 0.00 | 70 | 1020.9 |
| 20260507170022 | 55 | 303 | 1.7 | 4.3 | 0.00 | 0.00 | 0.00 | 72 | 1020.8 |
| 20260507165506 | 56 | 171 | 1.7 | 4.3 | 0.00 | 0.00 | 0.00 | 70 | 1020.8 |
| 20260507165012 | 56 | 221 | 0.9 | 3.5 | 0.00 | 0.00 | 0.00 | 71 | 1020.8 |
| 20260507164533 | 56 | 232 | 0.0 | 5.2 | 0.00 | 0.00 | 0.00 | 70 | 1020.8 |
| 20260507164011 | 56 | 269 | 0.9 | 5.2 | 0.00 | 0.00 | 0.00 | 71 | 1020.8 |
| 20260507163507 | 56 | 205 | 1.7 | 5.2 | 0.00 | 0.00 | 0.00 | 71 | 1020.9 |
| 20260507163008 | 55 | 9 | 0.9 | 5.2 | 0.00 | 0.00 | 0.00 | 73 | 1020.9 |
| 20260507162503 | 54 | 138 | 1.7 | 5.2 | 0.00 | 0.00 | 0.00 | 72 | 1020.9 |
| 20260507162011 | 56 | 176 | 1.7 | 4.3 | 0.00 | 0.00 | 0.00 | 70 | 1021.0 |
| 20260507161512 | 55 | 169 | 0.0 | 4.3 | 0.00 | 0.00 | 0.00 | 74 | 1021.0 |
| 20260507161007 | 54 | 174 | 0.9 | 4.3 | 0.00 | 0.00 | 0.00 | 73 | 1021.0 |
| 20260507160510 | 54 | 251 | 0.9 | 2.6 | 0.00 | 0.00 | 0.00 | 76 | 1021.0 |
| 20260507160024 | 54 | 150 | 0.9 | 2.6 | 0.00 | 0.00 | 0.00 | 73 | 1021.0 |
| 20260507155507 | 53 | 207 | 0.9 | 5.2 | 0.00 | 0.00 | 0.00 | 76 | 1021.1 |
| 20260507155010 | 53 | 142 | 0.0 | 5.2 | 0.00 | 0.00 | 0.00 | 76 | 1021.1 |
| 20260507154524 | 53 | 125 | 1.7 | 4.3 | 0.00 | 0.00 | 0.00 | 75 | 1021.1 |
| 20260507154010 | 53 | 192 | 0.9 | 5.2 | 0.00 | 0.00 | 0.00 | 77 | 1021.1 |
| 20260507153510 | 52 | 169 | 0.9 | 7.0 | 0.00 | 0.00 | 0.00 | 78 | 1021.1 |
| 20260507153034 | 52 | 157 | 1.7 | 7.0 | 0.00 | 0.00 | 0.00 | 76 | 1021.1 |
| 20260507152515 | 53 | 145 | 0.9 | 6.1 | 0.00 | 0.00 | 0.00 | 77 | 1021.1 |
| 20260507152012 | 52 | 173 | 1.7 | 5.2 | 0.00 | 0.00 | 0.00 | 77 | 1021.1 |
| 20260507151513 | 52 | 182 | 0.9 | 5.2 | 0.00 | 0.00 | 0.00 | 76 | 1021.0 |
| 20260507151006 | 53 | 195 | 0.0 | 4.3 | 0.00 | 0.00 | 0.00 | 77 | 1021.0 |
| 20260507150506 | 52 | 5 | 0.0 | 4.3 | 0.00 | 0.00 | 0.00 | 78 | 1021.0 |
| 20260507150014 | 52 | 184 | 0.0 | 5.2 | 0.00 | 0.00 | 0.00 | 77 | 1021.0 |
| 20260507145507 | 52 | 215 | 1.7 | 5.2 | 0.00 | 0.00 | 0.00 | 77 | 1021.0 |
| 20260507145011 | 52 | 211 | 1.7 | 5.2 | 0.00 | 0.00 | 0.00 | 78 | 1021.0 |
| 20260507144525 | 52 | 217 | 1.7 | 4.3 | 0.00 | 0.00 | 0.00 | 78 | 1021.1 |
| 20260507144011 | 52 | 232 | 1.7 | 4.3 | 0.00 | 0.00 | 0.00 | 77 | 1021.0 |
| 20260507143507 | 52 | 180 | 0.9 | 2.6 | 0.00 | 0.00 | 0.00 | 77 | 1021.0 |
| 20260507143027 | 52 | 294 | 0.0 | 3.5 | 0.00 | 0.00 | 0.00 | 79 | 1021.0 |
| 20260507142510 | 51 | 201 | 0.9 | 3.5 | 0.00 | 0.00 | 0.00 | 80 | 1020.9 |
| 20260507142010 | 51 | 196 | 0.9 | 3.5 | 0.00 | 0.00 | 0.00 | 81 | 1020.9 |
| 20260507141526 | 50 | 197 | 0.9 | 3.5 | 0.00 | 0.00 | 0.00 | 81 | 1020.9 |
| 20260507141010 | 50 | 192 | 0.0 | 6.1 | 0.00 | 0.00 | 0.00 | 82 | 1020.9 |
| 20260507140509 | 50 | 192 | 1.7 | 6.1 | 0.00 | 0.00 | 0.00 | 82 | 1020.9 |
| 20260507140019 | 50 | 192 | 0.9 | 2.6 | 0.00 | 0.00 | 0.00 | 83 | 1020.8 |
| 20260507135506 | 50 | 186 | 0.9 | 2.6 | 0.00 | 0.00 | 0.00 | 82 | 1020.6 |
| 20260507135008 | 50 | 220 | 0.9 | 3.5 | 0.00 | 0.00 | 0.00 | 82 | 1020.7 |
| 20260507134520 | 50 | 235 | 0.9 | 3.5 | 0.00 | 0.00 | 0.00 | 82 | 1020.6 |
| 20260507134002 | 50 | 208 | 0.0 | 2.6 | 0.00 | 0.00 | 0.00 | 83 | 1020.5 |
| 20260507133503 | 50 | 194 | 0.9 | 3.5 | 0.00 | 0.00 | 0.00 | 83 | 1020.6 |
| 20260507133006 | 50 | 194 | 0.0 | 3.5 | 0.00 | 0.00 | 0.00 | 84 | 1020.5 |
| 20260507132502 | 50 | 193 | 0.9 | 3.5 | 0.00 | 0.00 | 0.00 | 83 | 1020.5 |
| 20260507132006 | 50 | 216 | 0.9 | 2.6 | 0.00 | 0.00 | 0.00 | 83 | 1020.5 |
| 20260507131516 | 50 | 196 | 0.9 | 2.6 | 0.00 | 0.00 | 0.00 | 83 | 1020.4 |
| 20260507131004 | 50 | 173 | 0.9 | 2.6 | 0.00 | 0.00 | 0.00 | 83 | 1020.5 |
| 20260507130510 | 50 | 163 | 0.0 | 2.6 | 0.00 | 0.00 | 0.00 | 83 | 1020.5 |
| 20260507130015 | 50 | 163 | 0.0 | 2.6 | 0.00 | 0.00 | 0.00 | 83 | 1020.5 |
| 20260507125507 | 50 | 146 | 0.0 | 1.7 | 0.00 | 0.00 | 0.00 | 83 | 1020.4 |
| 20260507125006 | 50 | 126 | 0.0 | 1.7 | 0.00 | 0.00 | 0.00 | 83 | 1020.4 |
| 20260507124521 | 50 | 131 | 0.0 | 1.7 | 0.00 | 0.00 | 0.00 | 83 | 1020.4 |
| 20260507124011 | 50 | 126 | 0.0 | 1.7 | 0.00 | 0.00 | 0.00 | 83 | 1020.4 |
| 20260507123508 | 50 | 126 | 0.0 | 1.7 | 0.00 | 0.00 | 0.00 | 82 | 1020.5 |
| 20260507123023 | 50 | 217 | 0.0 | 1.7 | 0.00 | 0.00 | 0.00 | 83 | 1020.6 |
| 20260507122504 | 50 | 227 | 0.0 | 1.7 | 0.00 | 0.00 | 0.00 | 83 | 1020.6 |
| 20260507122004 | 50 | 146 | 0.0 | 1.7 | 0.00 | 0.00 | 0.00 | 83 | 1020.6 |
| 20260507121512 | 50 | 178 | 0.0 | 0.0 | 0.00 | 0.00 | 0.00 | 83 | 1020.6 |
| 20260507121004 | 50 | 178 | 0.0 | 0.9 | 0.00 | 0.00 | 0.00 | 83 | 1020.6 |
| 20260507120503 | 50 | 178 | 0.0 | 0.9 | 0.00 | 0.00 | 0.00 | 83 | 1020.6 |
| 20260507120011 | 50 | 175 | 0.0 | 0.0 | 0.00 | 0.00 | 0.00 | 84 | 1020.7 |
| 20260507115507 | 50 | 179 | 0.0 | 0.0 | 0.00 | 0.00 | 0.00 | 85 | 1020.8 |
| 20260507115004 | 50 | 179 | 0.0 | 0.0 | 0.00 | 0.00 | 0.00 | 85 | 1020.7 |
| 20260507114516 | 50 | 179 | 0.0 | 0.0 | 0.00 | 0.00 | 0.00 | 84 | 1020.8 |
| 20260507114006 | 50 | 179 | 0.0 | 1.7 | 0.00 | 0.00 | 0.00 | 84 | 1020.9 |
| 20260507113509 | 50 | 179 | 0.0 | 1.7 | 0.00 | 0.00 | 0.00 | 84 | 1020.9 |
| 20260507113038 | 50 | 172 | 0.0 | 0.0 | 0.00 | 0.00 | 0.00 | 84 | 1021.0 |
| 20260507112507 | 50 | 173 | 0.0 | 0.0 | 0.00 | 0.00 | 0.00 | 85 | 1021.0 |
| 20260507112010 | 50 | 173 | 0.0 | 0.0 | 0.00 | 0.00 | 0.00 | 85 | 1021.0 |
| 20260507111535 | 50 | 173 | 0.0 | 0.0 | 0.00 | 0.00 | 0.00 | 85 | 1021.0 |
| 20260507111004 | 50 | 173 | 0.0 | 0.0 | 0.00 | 0.00 | 0.00 | 85 | 1021.0 |
| 20260507110503 | 51 | 173 | 0.0 | 0.0 | 0.00 | 0.00 | 0.00 | 85 | 1021.0 |
| 20260507110015 | 50 | 173 | 0.0 | 0.0 | 0.00 | 0.00 | 0.00 | 85 | 1021.0 |
| 20260507105504 | 51 | 173 | 0.0 | 0.9 | 0.00 | 0.00 | 0.00 | 85 | 1021.0 |
| 20260507105003 | 51 | 173 | 0.0 | 0.9 | 0.00 | 0.00 | 0.00 | 85 | 1021.0 |
| 20260507104514 | 50 | 173 | 0.0 | 0.0 | 0.00 | 0.00 | 0.00 | 86 | 1021.0 |
| 20260507104010 | 51 | 173 | 0.0 | 0.0 | 0.00 | 0.00 | 0.00 | 86 | 1020.9 |
| 20260507103506 | 51 | 173 | 0.0 | 0.0 | 0.00 | 0.00 | 0.00 | 85 | 1021.1 |
| 20260507103021 | 51 | 172 | 0.0 | 0.0 | 0.00 | 0.00 | 0.00 | 85 | 1021.1 |
| 20260507102506 | 51 | 172 | 0.0 | 0.0 | 0.00 | 0.00 | 0.00 | 86 | 1021.2 |
| 20260507102008 | 51 | 173 | 0.0 | 0.0 | 0.00 | 0.00 | 0.00 | 86 | 1021.1 |
| 20260507101525 | 51 | 172 | 0.0 | 0.0 | 0.00 | 0.00 | 0.00 | 86 | 1021.2 |
| 20260507101008 | 51 | 172 | 0.0 | 1.7 | 0.00 | 0.00 | 0.00 | 86 | 1021.2 |
| 20260507100508 | 50 | 173 | 0.0 | 1.7 | 0.00 | 0.00 | 0.00 | 87 | 1021.1 |
| 20260507100026 | 50 | 173 | 0.0 | 1.7 | 0.00 | 0.00 | 0.00 | 87 | 1021.2 |
| 20260507095503 | 51 | 172 | 0.0 | 1.7 | 0.00 | 0.00 | 0.00 | 87 | 1021.2 |
| 20260507095003 | 50 | 173 | 0.0 | 1.7 | 0.00 | 0.00 | 0.00 | 87 | 1021.1 |
| 20260507094511 | 50 | 173 | 0.0 | 0.0 | 0.00 | 0.00 | 0.00 | 87 | 1021.1 |
| 20260507094003 | 50 | 173 | 0.0 | 0.0 | 0.00 | 0.00 | 0.00 | 87 | 1021.0 |
| 20260507093508 | 50 | 173 | 0.0 | 0.0 | 0.00 | 0.00 | 0.00 | 87 | 1021.1 |
| 20260507093014 | 50 | 173 | 0.0 | 0.0 | 0.00 | 0.00 | 0.00 | 87 | 1021.1 |
| 20260507092513 | 50 | 172 | 0.0 | 0.0 | 0.00 | 0.00 | 0.00 | 87 | 1021.1 |
| 20260507092010 | 50 | 173 | 0.0 | 0.0 | 0.00 | 0.00 | 0.00 | 88 | 1021.1 |
| 20260507091519 | 50 | 173 | 0.0 | 0.0 | 0.00 | 0.00 | 0.00 | 88 | 1021.1 |
| 20260507091009 | 50 | 172 | 0.0 | 0.0 | 0.00 | 0.00 | 0.00 | 88 | 1021.1 |
| 20260507090511 | 49 | 173 | 0.0 | 1.7 | 0.00 | 0.00 | 0.00 | 88 | 1021.1 |
| 20260507090024 | 50 | 172 | 0.0 | 1.7 | 0.00 | 0.00 | 0.00 | 88 | 1021.1 |
| 20260507085508 | 49 | 173 | 0.0 | 1.7 | 0.00 | 0.00 | 0.00 | 88 | 1021.2 |
| 20260507085007 | 50 | 172 | 0.0 | 1.7 | 0.00 | 0.00 | 0.00 | 88 | 1021.1 |
| 20260507084539 | 50 | 173 | 0.0 | 1.7 | 0.00 | 0.00 | 0.00 | 87 | 1021.1 |
| 20260507084011 | 50 | 173 | 0.0 | 1.7 | 0.00 | 0.00 | 0.00 | 87 | 1021.1 |
| 20260507083507 | 50 | 173 | 0.0 | 1.7 | 0.00 | 0.00 | 0.00 | 87 | 1021.1 |
| 20260507083012 | 50 | 173 | 0.0 | 1.7 | 0.00 | 0.00 | 0.00 | 87 | 1021.1 |
| 20260507082507 | 50 | 173 | 0.0 | 1.7 | 0.00 | 0.00 | 0.00 | 87 | 1021.2 |
| 20260507082008 | 50 | 193 | 0.0 | 0.9 | 0.00 | 0.00 | 0.00 | 87 | 1021.2 |
| 20260507081532 | 50 | 193 | 0.0 | 1.7 | 0.00 | 0.00 | 0.00 | 87 | 1021.2 |
| 20260507081007 | 51 | 193 | 0.0 | 1.7 | 0.00 | 0.00 | 0.00 | 87 | 1021.1 |
| 20260507080510 | 51 | 188 | 0.0 | 1.7 | 0.00 | 0.00 | 0.00 | 87 | 1021.2 |
| 20260507080024 | 51 | 157 | 0.0 | 1.7 | 0.00 | 0.00 | 0.00 | 87 | 1021.1 |
| 20260507075506 | 51 | 203 | 0.0 | 0.0 | 0.00 | 0.00 | 0.00 | 87 | 1021.1 |
| 20260507075007 | 51 | 207 | 0.0 | 0.0 | 0.00 | 0.00 | 0.00 | 87 | 1021.1 |
| 20260507074503 | 51 | 207 | 0.0 | 2.6 | 0.00 | 0.00 | 0.00 | 87 | 1021.3 |
| 20260507074004 | 51 | 195 | 0.0 | 2.6 | 0.00 | 0.00 | 0.00 | 87 | 1021.2 |
| 20260507073505 | 51 | 197 | 0.9 | 1.7 | 0.00 | 0.00 | 0.00 | 87 | 1021.3 |
| 20260507073005 | 51 | 205 | 0.0 | 4.3 | 0.00 | 0.00 | 0.00 | 88 | 1021.2 |
| 20260507072504 | 51 | 202 | 0.9 | 4.3 | 0.00 | 0.00 | 0.00 | 87 | 1021.2 |
| 20260507072003 | 51 | 219 | 1.7 | 4.3 | 0.00 | 0.00 | 0.00 | 88 | 1021.2 |
| 20260507071506 | 51 | 182 | 0.0 | 1.7 | 0.00 | 0.00 | 0.00 | 88 | 1021.1 |
| 20260507071004 | 51 | 229 | 0.0 | 3.5 | 0.00 | 0.00 | 0.00 | 88 | 1021.1 |
| 20260507070504 | 51 | 217 | 0.9 | 3.5 | 0.00 | 0.00 | 0.00 | 88 | 1021.1 |
| 20260507070011 | 51 | 182 | 0.0 | 2.6 | 0.00 | 0.00 | 0.00 | 88 | 1021.1 |
| 20260507065505 | 51 | 181 | 0.0 | 2.6 | 0.00 | 0.00 | 0.00 | 88 | 1021.2 |
| 20260507065003 | 51 | 188 | 0.0 | 2.6 | 0.00 | 0.00 | 0.00 | 89 | 1021.1 |
| 20260507064504 | 51 | 207 | 0.0 | 4.3 | 0.00 | 0.00 | 0.00 | 89 | 1021.3 |
| 20260507064003 | 51 | 199 | 0.9 | 4.3 | 0.00 | 0.00 | 0.00 | 89 | 1021.1 |
| 20260507063507 | 51 | 173 | 0.9 | 4.3 | 0.00 | 0.00 | 0.00 | 89 | 1021.2 |
| 20260507063008 | 51 | 186 | 0.0 | 6.1 | 0.00 | 0.00 | 0.00 | 89 | 1021.2 |
| 20260507062503 | 51 | 220 | 0.0 | 6.1 | 0.00 | 0.00 | 0.00 | 89 | 1021.3 |
| 20260507062004 | 51 | 183 | 0.0 | 3.5 | 0.00 | 0.00 | 0.00 | 89 | 1021.2 |
| 20260507061507 | 51 | 199 | 1.7 | 3.5 | 0.00 | 0.00 | 0.00 | 89 | 1021.3 |
| 20260507061004 | 51 | 194 | 0.0 | 5.2 | 0.00 | 0.00 | 0.00 | 89 | 1021.3 |
| 20260507060503 | 51 | 178 | 1.7 | 5.2 | 0.00 | 0.00 | 0.00 | 89 | 1021.3 |
| 20260507060006 | 51 | 187 | 0.0 | 0.0 | 0.00 | 0.00 | 0.00 | 89 | 1021.2 |
| 20260507055504 | 51 | 188 | 0.0 | 2.6 | 0.00 | 0.00 | 0.00 | 89 | 1021.3 |
| 20260507055006 | 51 | 202 | 0.0 | 2.6 | 0.00 | 0.00 | 0.00 | 89 | 1021.3 |
| 20260507054504 | 51 | 192 | 0.0 | 4.3 | 0.00 | 0.00 | 0.00 | 89 | 1021.3 |
| 20260507054005 | 51 | 192 | 1.7 | 4.3 | 0.00 | 0.00 | 0.00 | 89 | 1021.2 |
| 20260507053504 | 51 | 177 | 0.9 | 3.5 | 0.00 | 0.00 | 0.00 | 89 | 1021.2 |
| 20260507053008 | 51 | 190 | 1.7 | 5.2 | 0.00 | 0.00 | 0.00 | 88 | 1021.3 |
| 20260507052504 | 52 | 217 | 1.7 | 5.2 | 0.00 | 0.00 | 0.00 | 88 | 1021.3 |
| 20260507052004 | 52 | 212 | 0.0 | 4.3 | 0.00 | 0.00 | 0.00 | 87 | 1021.3 |
| 20260507051508 | 52 | 199 | 0.0 | 5.2 | 0.00 | 0.00 | 0.00 | 87 | 1021.4 |
| 20260507051006 | 52 | 202 | 0.0 | 5.2 | 0.00 | 0.00 | 0.00 | 86 | 1021.3 |
| 20260507050503 | 52 | 211 | 0.0 | 2.6 | 0.00 | 0.00 | 0.00 | 86 | 1021.4 |
| 20260507050012 | 52 | 201 | 0.0 | 1.7 | 0.00 | 0.00 | 0.00 | 86 | 1021.4 |
| 20260507045504 | 52 | 196 | 0.0 | 5.2 | 0.00 | 0.00 | 0.00 | 85 | 1021.4 |
| 20260507045004 | 52 | 227 | 1.7 | 5.2 | 0.00 | 0.00 | 0.00 | 85 | 1021.5 |
| 20260507044509 | 53 | 209 | 0.0 | 5.2 | 0.00 | 0.00 | 0.00 | 85 | 1021.5 |
| 20260507044006 | 53 | 192 | 0.9 | 5.2 | 0.00 | 0.00 | 0.00 | 84 | 1021.4 |
| 20260507043504 | 53 | 309 | 0.0 | 2.6 | 0.00 | 0.00 | 0.00 | 84 | 1021.4 |
| 20260507043010 | 53 | 203 | 0.9 | 2.6 | 0.00 | 0.00 | 0.00 | 84 | 1021.4 |
| 20260507042505 | 53 | 217 | 0.0 | 2.6 | 0.00 | 0.00 | 0.00 | 83 | 1021.3 |
| 20260507042002 | 53 | 203 | 0.9 | 2.6 | 0.00 | 0.00 | 0.00 | 82 | 1021.3 |
| 20260507041508 | 53 | 218 | 0.0 | 1.7 | 0.00 | 0.00 | 0.00 | 82 | 1021.3 |
| 20260507041006 | 53 | 199 | 0.0 | 1.7 | 0.00 | 0.00 | 0.00 | 82 | 1021.3 |
| 20260507040506 | 53 | 199 | 0.0 | 0.9 | 0.00 | 0.00 | 0.00 | 82 | 1021.3 |
| 20260507040010 | 53 | 198 | 0.0 | 1.7 | 0.00 | 0.00 | 0.00 | 82 | 1021.3 |
| 20260507035508 | 53 | 198 | 0.0 | 1.7 | 0.00 | 0.00 | 0.00 | 82 | 1021.3 |
| 20260507035007 | 54 | 198 | 0.0 | 0.9 | 0.00 | 0.00 | 0.00 | 82 | 1021.1 |
| 20260507034521 | 54 | 212 | 0.0 | 0.0 | 0.00 | 0.00 | 0.00 | 82 | 1021.1 |
| 20260507034003 | 54 | 211 | 0.0 | 0.0 | 0.00 | 0.00 | 0.00 | 81 | 1021.1 |
| 20260507033507 | 54 | 165 | 0.0 | 1.7 | 0.00 | 0.00 | 0.00 | 81 | 1021.1 |
| 20260507033015 | 54 | 151 | 0.0 | 1.7 | 0.00 | 0.00 | 0.00 | 81 | 1021.1 |
| 20260507032509 | 54 | 102 | 0.0 | 1.7 | 0.00 | 0.00 | 0.00 | 81 | 1020.9 |
| 20260507032004 | 54 | 302 | 0.0 | 1.7 | 0.00 | 0.00 | 0.00 | 81 | 1020.8 |
| 20260507031507 | 54 | 292 | 0.0 | 1.7 | 0.00 | 0.00 | 0.00 | 80 | 1020.7 |
| 20260507031006 | 54 | 292 | 0.0 | 0.9 | 0.00 | 0.00 | 0.00 | 80 | 1020.7 |
| 20260507030509 | 54 | 263 | 0.0 | 0.9 | 0.00 | 0.00 | 0.00 | 80 | 1020.7 |
| 20260507030016 | 54 | 214 | 0.0 | 4.3 | 0.00 | 0.00 | 0.00 | 80 | 1020.7 |
| 20260507025505 | 54 | 215 | 0.0 | 4.3 | 0.00 | 0.00 | 0.00 | 79 | 1020.6 |
| 20260507025004 | 55 | 208 | 0.0 | 2.6 | 0.00 | 0.00 | 0.00 | 79 | 1020.8 |
| 20260507024519 | 55 | 236 | 0.9 | 2.6 | 0.00 | 0.00 | 0.00 | 79 | 1020.8 |
| 20260507024003 | 55 | 162 | 0.0 | 2.6 | 0.00 | 0.00 | 0.00 | 79 | 1020.7 |
| 20260507023503 | 55 | 133 | 0.0 | 1.7 | 0.00 | 0.00 | 0.00 | 79 | 1020.7 |
| 20260507023010 | 55 | 196 | 0.9 | 2.6 | 0.00 | 0.00 | 0.00 | 79 | 1020.6 |
| 20260507022507 | 55 | 125 | 0.0 | 7.0 | 0.00 | 0.00 | 0.00 | 78 | 1020.7 |
| 20260507022006 | 55 | 295 | 1.7 | 7.0 | 0.00 | 0.00 | 0.00 | 78 | 1020.6 |
| 20260507021513 | 55 | 141 | 0.0 | 1.7 | 0.00 | 0.00 | 0.00 | 78 | 1020.5 |
| 20260507021008 | 55 | 152 | 0.0 | 1.7 | 0.00 | 0.00 | 0.00 | 78 | 1020.5 |
| 20260507020505 | 55 | 190 | 0.0 | 1.7 | 0.00 | 0.00 | 0.00 | 78 | 1020.5 |
| 20260507020008 | 55 | 196 | 0.9 | 1.7 | 0.00 | 0.00 | 0.00 | 77 | 1020.6 |
| 20260507015504 | 56 | 242 | 0.9 | 1.7 | 0.00 | 0.00 | 0.00 | 78 | 1020.6 |
| 20260507015008 | 56 | 229 | 0.0 | 1.7 | 0.00 | 0.00 | 0.00 | 77 | 1020.5 |
| 20260507014513 | 56 | 86 | 0.0 | 3.5 | 0.00 | 0.00 | 0.00 | 77 | 1020.5 |
| 20260507014004 | 56 | 197 | 0.0 | 3.5 | 0.00 | 0.00 | 0.00 | 77 | 1020.6 |
| 20260507013503 | 56 | 205 | 0.0 | 3.5 | 0.00 | 0.00 | 0.00 | 77 | 1020.6 |
| 20260507013020 | 56 | 213 | 0.0 | 3.5 | 0.00 | 0.00 | 0.00 | 77 | 1020.5 |